Weather History for Ypsilanti, MI

Change the Weather History Date:

Thursday, March 7, 2013

  Actual Average Record
Temperature  
Mean Temperature 34 °F -  
Max Temperature 39 °F 43 °F 71 °F (1987)
Min Temperature 27 °F 25 °F 5 °F (1982)
Degree Days  
Heating Degree Days 30    
Moisture  
Dew Point 25 °F    
Average Humidity 66    
Maximum Humidity 76    
Minimum Humidity 56    
Precipitation  
Precipitation 0.00 in - - ()
Sea Level Pressure  
Sea Level Pressure 30.31 in    
Wind  
Wind Speed 7 mph (NW)    
Max Wind Speed 14 mph    
Max Gust Speed -    
Visibility 9 miles    
Events      
Averages and records for this station are not official NWS values.
T = Trace of Precipitation, MM = Missing Value Source: NWS Daily Summary

Daily Weather History Graph

Daily Weather History Graph

Search for Another Location

Airport:

Trip Planner

Search our weather history database for the weather conditions in past years. The results will help you decide how hot, cold, wet, or windy it might be!

Date:

Astronomy

Mar. 07, 2013 Rise Set
Actual Time 6:59 AM EST 6:31 PM EST
Civil Twilight 6:31 AM EST 6:59 PM EST
Nautical Twilight 5:58 AM EST 7:32 PM EST
Astronomical Twilight 5:26 AM EST 8:04 PM EST
Moon 4:02 AM EST (3/7) 2:14 PM EST (3/7)
Length of Visible Light 12h 28m
Length of Day
11h 32m
Waning Crescent, 20% of the Moon is Illuminated
Mar 7
Waning Crescent
Mar 11
New
Mar 19
First Quarter
Mar 27
Full
Apr 3
Last Quarter

Hourly Weather History & Observations

Time (EST) Temp. Windchill Dew Point Humidity Pressure Visibility Wind Dir Wind Speed Gust Speed Precip Events Conditions
12:53 AM 35.1 °F 30.1 °F 28.0 °F 76% 30.20 in 9.0 mi NW 5.8 mph - N/A   Overcast
1:53 AM 35.1 °F 32.2 °F 28.0 °F 76% 30.21 in 9.0 mi WNW 3.5 mph - N/A   Overcast
2:53 AM 35.1 °F 30.1 °F 27.0 °F 72% 30.21 in 9.0 mi WNW 5.8 mph - N/A   Overcast
3:53 AM 34.0 °F - 27.0 °F 75% 30.22 in 9.0 mi Calm Calm - N/A   Overcast
4:53 AM 34.0 °F 29.8 °F 27.0 °F 75% 30.23 in 9.0 mi NW 4.6 mph - N/A   Overcast
5:53 AM 34.0 °F 28.8 °F 27.0 °F 75% 30.25 in 8.0 mi WNW 5.8 mph - N/A   Overcast
6:53 AM 34.0 °F 28.8 °F 27.0 °F 75% 30.26 in 8.0 mi WNW 5.8 mph - N/A   Overcast
7:53 AM 35.1 °F 30.1 °F 28.0 °F 76% 30.27 in 5.0 mi NW 5.8 mph - N/A   Haze
8:53 AM 36.0 °F 28.5 °F 28.9 °F 76% 30.30 in 6.0 mi NW 10.4 mph - N/A   Haze
9:53 AM 37.9 °F 29.6 °F 28.9 °F 70% 30.31 in 7.0 mi NW 13.8 mph - N/A   Overcast
10:29 AM 37.4 °F 29.8 °F 28.4 °F 70% 30.30 in 10.0 mi NNW 11.5 mph - N/A   Overcast
10:53 AM 37.9 °F 32.1 °F 28.9 °F 70% 30.32 in 10.0 mi NW 8.1 mph - N/A   Overcast
11:17 AM 39.2 °F 31.6 °F 28.4 °F 65% 30.31 in 10.0 mi NNW 12.7 mph - N/A   Overcast
11:53 AM 39.0 °F 32.3 °F 28.0 °F 65% 30.33 in 10.0 mi NNW 10.4 mph - N/A   Overcast
12:53 PM 39.0 °F 31.8 °F 27.0 °F 62% 30.32 in 10.0 mi NNW 11.5 mph - N/A   Mostly Cloudy
1:29 PM 39.2 °F 32.5 °F 26.6 °F 61% 30.31 in 10.0 mi NW 10.4 mph - N/A   Overcast
1:53 PM 39.0 °F 31.4 °F 26.1 °F 60% 30.32 in 10.0 mi NNW 12.7 mph - N/A   Overcast
2:53 PM 37.9 °F 30.5 °F 25.0 °F 60% 30.33 in 10.0 mi NNW 11.5 mph - N/A   Overcast
3:53 PM 37.9 °F 31.5 °F 24.1 °F 57% 30.34 in 10.0 mi NNW 9.2 mph - N/A   Overcast
4:53 PM 37.0 °F 30.4 °F 24.1 °F 59% 30.35 in 10.0 mi North 9.2 mph - N/A   Overcast
5:53 PM 36.0 °F 28.5 °F 23.0 °F 59% 30.36 in 10.0 mi NNW 10.4 mph - N/A   Overcast
6:53 PM 35.1 °F 27.4 °F 21.0 °F 57% 30.38 in 10.0 mi NNW 10.4 mph - N/A   Overcast
7:53 PM 34.0 °F 28.0 °F 19.9 °F 56% 30.40 in 10.0 mi North 6.9 mph - N/A   Overcast
8:53 PM 33.1 °F 30.0 °F 19.0 °F 56% 30.40 in 10.0 mi North 3.5 mph - N/A   Overcast
9:53 PM 30.9 °F 27.5 °F 18.0 °F 59% 30.40 in 10.0 mi North 3.5 mph - N/A   Overcast
10:53 PM 30.9 °F - 18.0 °F 59% 30.40 in 10.0 mi Calm Calm - N/A   Partly Cloudy
11:53 PM 27.0 °F 21.6 °F 18.0 °F 69% 30.40 in 10.0 mi NNW 4.6 mph - N/A   Clear